2018-111AA (43900 NORAD) Tracking and Keplerian Element Data

This shows tracking and keplerian element data for the satellite.

Feedback or suggestion? Click here.




ElementValue
Catalog43900
Name2018-111AA
Epoch Orbit316
Epoch Day16.8364739
Epoch Year2019
RAAN286.1731
Inclination97.2997
Eccentricity0.002309
Argument of Perigee171.7067
Mean Anonmoly188.4557
Mean Motion15.23566293
Decay Rate4.35E-06
L11 43900U 18111AA 19016.83647390 .00000435 00000-0 21004-4 0 9998
L22 43900 97.2997 286.1731 0023090 171.7067 188.4557 15.23566293 3162

Live tracking and technical data element details for 2018-111AA (NORAD 43900). 2018-111AA can be tracked NOW for your location showing map with azimuth and elevation plus other details from your city location.

Track the satellite on the map from your city or location and see movement details for azimuth, elevation, latitude, longitude, range, height, and movement on the map or in text.







IsCatalogInMostPopularTable: catalog: 43900, numindb: 18
Update: records affected: 1



GetName: 43900 2018-111AA

Hit Count: updated at: Thu, 17 Jan 2019 14:39:29 GMT